BEIDOU-3 M23

Last updated on Sun Nov 02 2025 00:02:35 GMT+0000 (Coordinated Universal Time)

1 44543U 19061B 25305.43163638 .00000045 00000+0 00000+0 0 9993 2 44543 54.3994 190.3793 0005839 12.0307 165.7518 1.86229360 41551
UTC large
Height (km)
Speed (km/s)
/
Latitude / Longitude
Inclination (degrees)
Orbital Period (minutes)
Azimuth
Elevation
Range (km)
Doppler Factor

Next 0 passes for location: London (51.5072 / 0.1276)

Sorry there are no passes over London.